Precipitable_Water
1.18 1.22 1.26 1.27 1.29 1.30 1.35 1.34 1.22 1.14 1.26 1.20 1.24 1.21 1.16 1.10 1.06 0.95 0.88 0.83 0.80 0.89 0.98 0.98 0.99 1.10 1.05 1.01 1.02 0.99 0.97 0.96 0.80 0.79 0.94 1.04 1.00 1.00 1.03 1.09 1.09 1.04 0.96
1.38 1.29 1.32 1.36 1.27 1.26 1.36 1.58 1.17 1.05 1.20 1.16 1.26 1.24 1.18 1.18 1.15 1.05 0.94 0.90 0.92 0.94 0.98 1.00 1.00 1.03 0.98 0.99 0.93 0.90 0.93 0.98 0.89 0.79 0.81 0.89 0.95 1.01 1.03 1.02 1.07 1.05 0.97
1.59 1.54 1.41 1.42 1.41 1.31 1.39 1.39 1.20 1.15 1.12 1.21 1.28 1.21 1.16 1.18 1.18 1.15 1.03 0.97 0.97 1.04 1.05 1.05 1.07 1.09 0.99 0.94 0.93 0.91 0.93 0.97 1.00 0.89 0.82 0.88 0.92 0.99 0.97 1.00 1.01 1.01 1.01
1.52 1.54 1.58 1.53 1.51 1.48 1.45 1.59 1.26 1.42 1.34 1.27 1.22 1.18 1.19 1.23 1.19 1.13 1.07 1.08 1.05 1.07 1.13 1.16 1.17 1.10 1.03 0.95 0.90 0.92 0.92 0.90 0.92 0.89 0.87 0.85 0.90 0.95 0.94 0.89 0.87 0.95 0.92
1.42 1.50 1.56 1.69 1.68 1.66 1.65 1.65 1.59 1.47 1.58 1.53 1.30 1.22 1.21 1.23 1.20 1.18 1.19 1.22 1.17 1.15 1.19 1.22 1.28 1.17 1.07 0.98 0.89 0.83 0.89 0.89 0.90 0.86 0.86 0.87 0.89 0.86 0.83 0.87 0.85 0.89 0.84
1.36 1.35 1.48 1.56 1.57 1.62 1.67 1.65 1.67 1.67 1.63 1.57 1.43 1.30 1.23 1.24 1.20 1.25 1.28 1.29 1.25 1.28 1.25 1.25 1.34 1.22 1.07 1.01 0.94 0.94 0.99 0.94 0.90 0.85 0.90 0.89 0.89 0.90 0.90 0.89 0.85 0.75 0.63
1.32 1.38 1.44 1.48 1.53 1.63 1.66 1.69 1.65 1.61 1.49 1.47 1.39 1.38 1.35 1.28 1.26 1.27 1.30 1.33 1.31 1.31 1.31 1.39 1.34 1.27 1.12 1.05 1.00 0.98 1.01 1.02 1.00 0.99 0.94 0.94 0.90 0.90 0.94 0.88 0.82 0.73 0.63
1.15 1.21 1.32 1.39 1.48 1.58 1.67 1.64 1.60 1.54 1.46 1.46 1.42 1.44 1.37 1.37 1.34 1.34 1.43 1.44 1.42 1.45 1.45 1.42 1.33 1.23 1.15 1.05 1.01 0.96 0.97 1.00 1.03 1.03 1.01 0.99 1.00 0.99 0.95 0.90 0.76 0.72 0.85
1.01 1.12 1.25 1.36 1.39 1.46 1.52 1.48 1.48 1.49 1.40 1.51 1.51 1.38 1.34 1.36 1.38 1.36 1.35 1.35 1.44 1.46 1.51 1.41 1.31 1.12 1.01 0.97 0.92 0.89 0.88 0.90 0.98 0.95 0.99 0.97 0.95 0.92 0.87 0.82 0.72 0.75 0.73
1.16 1.27 1.39 1.50 1.55 1.56 1.57 1.52 1.56 1.53 1.50 1.63 1.50 1.43 1.40 1.35 1.37 1.33 1.30 1.35 1.39 1.43 1.48 1.27 1.10 0.97 0.94 0.93 0.85 0.86 0.80 0.84 0.88 0.88 0.92 0.89 0.89 0.90 0.90 0.91 0.85 0.77 0.77
1.31 1.41 1.49 1.54 1.50 1.49 1.51 1.53 1.52 1.48 1.51 1.52 1.40 1.42 1.36 1.33 1.31 1.33 1.33 1.34 1.28 1.37 1.23 1.07 1.00 0.96 0.88 0.85 0.86 0.85 0.83 0.87 0.89 0.86 0.71 0.72 0.80 0.84 0.88 0.90 0.91 0.89 0.82
1.45 1.46 1.50 1.56 1.53 1.49 1.48 1.49 1.55 1.52 1.49 1.49 1.45 1.36 1.30 1.33 1.27 1.27 1.29 1.32 1.34 1.19 1.09 0.97 0.94 0.86 0.79 0.81 0.84 0.86 0.85 0.91 0.87 0.65 0.60 0.64 0.71 0.77 0.81 0.79 0.80 0.85 0.92
1.35 1.40 1.45 1.47 1.47 1.45 1.39 1.40 1.39 1.46 1.43 1.35 1.31 1.27 1.28 1.35 1.29 1.27 1.25 1.16 1.10 1.09 1.00 0.88 0.85 0.81 0.81 0.84 0.88 0.86 0.90 0.87 0.69 0.58 0.61 0.64 0.68 0.70 0.74 0.68 0.69 0.73 0.89
1.37 1.45 1.43 1.41 1.40 1.40 1.37 1.35 1.34 1.30 1.25 1.28 1.28 1.24 1.17 1.18 1.14 1.18 1.10 1.05 1.03 0.96 0.90 0.88 0.84 0.83 0.87 0.89 0.89 0.90 0.89 0.75 0.61 0.60 0.62 0.65 0.68 0.67 0.63 0.62 0.57 0.62 0.82
1.37 1.36 1.31 1.29 1.31 1.27 1.30 1.30 1.21 1.24 1.22 1.21 1.13 1.12 1.07 1.04 1.11 1.14 1.07 1.00 0.98 0.92 0.86 0.81 0.79 0.82 0.84 0.85 0.85 0.81 0.69 0.63 0.59 0.59 0.58 0.59 0.60 0.59 0.54 0.50 0.55 0.70 0.85
1.26 1.24 1.18 1.15 1.17 1.18 1.14 1.07 1.12 1.16 1.21 1.21 1.21 1.15 1.06 1.13 1.11 1.05 1.00 0.96 0.90 0.83 0.79 0.76 0.78 0.80 0.79 0.78 0.69 0.62 0.63 0.61 0.59 0.57 0.54 0.52 0.50 0.44 0.39 0.41 0.58 0.76 0.84
1.17 1.15 1.13 1.14 1.16 1.09 1.05 1.02 0.99 1.03 1.01 1.01 1.05 1.08 1.10 1.07 1.04 0.97 0.91 0.88 0.85 0.83 0.76 0.75 0.77 0.78 0.76 0.73 0.67 0.67 0.63 0.60 0.58 0.53 0.49 0.45 0.42 0.37 0.35 0.38 0.59 0.75 0.84
1.15 1.08 1.07 1.05 1.00 0.96 0.97 1.00 0.97 0.93 0.92 0.96 1.03 1.04 1.01 0.96 0.92 0.90 0.88 0.84 0.77 0.77 0.76 0.74 0.74 0.74 0.72 0.70 0.68 0.61 0.55 0.49 0.46 0.44 0.42 0.38 0.37 0.35 0.33 0.36 0.56 0.68 0.77
0.99 0.97 0.99 0.99 0.99 1.02 1.07 1.05 1.03 1.02 1.00 0.94 0.95 0.96 0.93 0.89 0.86 0.85 0.82 0.77 0.72 0.69 0.67 0.66 0.65 0.64 0.64 0.61 0.58 0.53 0.47 0.40 0.36 0.36 0.34 0.33 0.33 0.32 0.32 0.36 0.47 0.63 0.75
0.96 1.01 1.02 1.05 1.07 1.07 1.04 0.98 0.94 0.94 0.93 0.92 0.91 0.89 0.90 0.86 0.80 0.80 0.79 0.78 0.75 0.70 0.67 0.65 0.65 0.63 0.60 0.56 0.49 0.42 0.35 0.33 0.31 0.30 0.31 0.30 0.30 0.30 0.30 0.33 0.41 0.53 0.67
1.03 1.08 1.14 1.09 1.06 0.99 0.93 0.92 0.94 0.92 0.91 0.90 0.90 0.91 0.91 0.85 0.81 0.75 0.71 0.71 0.71 0.71 0.69 0.69 0.66 0.60 0.52 0.46 0.39 0.32 0.29 0.29 0.28 0.28 0.28 0.28 0.28 0.27 0.28 0.29 0.32 0.48 0.57
1.14 1.12 1.14 1.09 1.04 1.02 1.03 0.99 0.95 0.91 0.89 0.90 0.91 0.92 0.92 0.86 0.81 0.76 0.74 0.75 0.74 0.72 0.69 0.65 0.59 0.54 0.46 0.36 0.29 0.27 0.27 0.27 0.28 0.28 0.27 0.27 0.26 0.25 0.26 0.26 0.27 0.31 0.44
1.10 1.07 1.04 0.99 0.98 0.97 0.96 0.97 0.94 0.95 0.95 0.94 0.93 0.88 0.83 0.81 0.81 0.80 0.77 0.75 0.71 0.70 0.65 0.56 0.51 0.46 0.36 0.26 0.25 0.26 0.26 0.27 0.27 0.27 0.26 0.25 0.25 0.24 0.25 0.24 0.25 0.27 0.29
0.98 0.96 0.95 0.96 0.96 0.92 0.88 0.86 0.89 0.90 0.90 0.87 0.84 0.81 0.78 0.81 0.82 0.81 0.75 0.72 0.69 0.65 0.59 0.50 0.44 0.37 0.28 0.21 0.21 0.24 0.26 0.28 0.29 0.29 0.28 0.26 0.26 0.27 0.25 0.25 0.24 0.26 0.26
0.98 0.95 0.89 0.84 0.79 0.77 0.78 0.82 0.82 0.79 0.75 0.74 0.74 0.74 0.77 0.78 0.79 0.77 0.71 0.67 0.63 0.59 0.52 0.47 0.40 0.30 0.23 0.20 0.19 0.21 0.23 0.23 0.28 0.29 0.30 0.30 0.30 0.30 0.28 0.27 0.27 0.26 0.27
0.78 0.75 0.74 0.72 0.71 0.72 0.71 0.67 0.63 0.61 0.59 0.59 0.58 0.60 0.64 0.67 0.69 0.68 0.63 0.61 0.58 0.55 0.50 0.45 0.37 0.28 0.22 0.21 0.23 0.22 0.21 0.21 0.25 0.26 0.28 0.30 0.30 0.29 0.28 0.27 0.26 0.26 0.26
Wind_Speed
22 22 22 22 23 22 21 21 22 21 21 20 19 19 19 18 18 18 17 17 17 17 17 18 19 19 20 21 23 24 24 25 26 28 29 29 31 32 33 34 34 34 34
22 23 24 24 24 24 27 25 24 24 23 22 22 22 21 20 20 19 19 19 18 18 17 17 18 18 20 22 24 24 24 27 29 32 31 32 32 34 34 34 33 34 35
22 23 24 26 28 29 28 28 28 23 24 26 25 25 24 23 22 21 20 19 19 19 19 20 21 22 23 24 25 26 27 29 30 33 33 33 34 33 34 33 32 33 34
23 24 26 27 28 28 28 31 27 30 27 26 26 26 25 24 23 22 21 21 21 22 22 23 23 23 24 26 27 30 29 30 32 33 34 33 33 32 33 33 33 33 34
23 25 26 27 27 28 29 30 32 32 35 30 28 27 26 25 24 24 23 23 23 24 24 25 26 26 28 29 30 31 30 32 33 34 34 33 32 33 33 34 33 33 34
22 23 24 24 25 26 27 29 29 26 28 28 27 26 26 25 25 25 25 26 26 27 26 26 27 28 30 32 33 32 32 33 35 35 33 32 33 34 34 32 32 33 34
22 22 23 23 24 25 26 27 27 26 27 26 25 26 27 28 26 26 28 29 29 28 28 30 31 31 32 32 32 33 33 34 35 34 33 32 34 32 31 32 32 34 35
22 22 22 23 24 25 25 26 26 26 26 23 24 26 26 26 25 25 26 27 27 29 30 30 30 32 33 34 34 33 33 33 32 32 32 33 33 32 32 33 34 35 35
19 19 19 20 21 23 24 24 24 25 24 22 23 24 25 25 26 25 26 28 28 29 31 30 31 32 32 32 33 33 33 32 31 31 32 33 33 32 32 32 32 32 35
19 20 21 23 24 23 24 24 24 25 23 23 23 22 22 23 24 26 26 28 30 32 30 30 31 32 32 32 31 31 31 30 30 31 31 31 31 30 30 29 30 32 35
21 22 23 24 25 26 25 26 25 24 24 25 24 23 24 25 26 27 28 29 30 29 29 30 30 30 30 30 30 30 30 29 29 29 29 28 28 28 27 27 29 32 34
26 27 27 26 25 24 23 22 23 23 23 22 22 23 24 25 26 27 29 30 27 27 28 29 29 29 30 29 29 28 27 26 26 27 26 26 26 25 25 26 29 31 33
27 26 25 24 23 23 21 22 21 21 21 22 23 23 24 25 28 27 26 25 25 26 27 29 29 30 29 28 28 26 25 24 25 25 24 24 24 24 25 26 28 30 31
24 24 24 23 23 23 23 22 21 20 21 21 21 22 25 26 24 25 23 23 25 26 29 29 29 28 28 26 24 23 23 24 24 23 24 24 23 23 24 25 27 28 29
24 23 22 21 21 21 19 18 19 20 21 22 23 24 24 23 23 23 24 25 26 28 29 28 27 26 24 23 22 21 22 22 22 22 23 23 23 23 24 24 24 25 26
20 20 19 19 19 19 19 20 20 22 23 22 22 21 21 21 22 23 25 26 27 27 27 26 25 22 21 20 20 20 20 21 21 22 22 22 22 22 22 22 22 23 23
19 19 20 20 19 20 20 21 21 20 18 18 19 20 21 22 23 24 24 25 25 25 24 23 21 20 20 20 20 20 21 22 22 22 21 21 21 20 20 20 20 20 22
20 20 19 19 19 20 21 21 21 21 20 20 21 20 20 21 21 22 23 23 23 22 22 21 20 20 20 20 20 21 21 22 21 21 20 19 19 18 18 18 18 19 19
18 18 18 20 22 21 21 21 21 21 21 20 20 20 21 21 21 22 22 21 20 20 20 19 19 18 19 19 20 20 20 20 19 18 17 16 16 16 16 16 16 17 17
19 19 20 19 18 19 19 19 19 20 21 21 21 21 21 21 20 20 20 19 19 19 19 18 17 17 18 18 19 19 18 16 15 15 14 14 14 14 14 15 15 15 16
19 18 17 18 18 18 18 18 20 21 21 21 20 20 19 19 19 19 19 18 19 19 19 18 17 17 17 17 16 15 14 13 12 12 12 12 12 13 13 13 13 14 14
17 18 18 19 19 19 20 20 20 20 20 20 20 19 19 20 20 20 19 19 19 19 18 16 16 15 15 14 13 12 12 12 12 12 12 12 12 12 12 12 12 12 13
19 19 19 20 20 20 20 20 20 19 19 19 19 19 19 20 19 19 18 18 19 18 17 16 15 15 14 13 12 11 11 11 12 12 13 13 12 12 12 11 11 11 11
18 18 19 18 19 19 19 18 17 17 17 18 19 19 19 18 18 18 18 17 17 16 16 15 15 14 13 12 11 11 11 12 12 13 13 13 13 12 12 11 10 10 10
15 15 16 17 17 17 17 16 17 17 18 17 17 17 18 18 18 18 17 16 16 15 14 14 14 13 12 12 11 11 11 12 12 13 12 12 12 11 11 10 10 9 9
14 15 15 15 15 16 16 16 16 16 16 16 16 16 16 16 16 16 16 16 15 15 14 13 13 13 12 11 11 11 12 12 12 12 11 11 11 10 10 9 9 8 8
Wind_Direction
237 240 243 248 250 253 259 263 266 267 268 272 274 277 280 280 282 284 284 286 287 287 290 294 295 295 297 298 301 300 298 299 298 299 298 296 295 293 289 286 283 281 279
240 244 248 251 254 255 262 265 268 266 267 268 272 273 277 277 279 279 282 283 284 286 288 293 299 299 300 302 301 301 297 299 298 300 300 297 294 293 291 289 285 281 280
246 250 253 255 257 260 264 261 260 268 264 269 270 271 272 274 274 276 278 278 280 284 286 289 295 296 299 303 302 304 301 301 299 300 300 298 295 293 291 290 287 284 282
251 254 258 260 262 262 265 258 269 266 272 266 269 267 268 270 270 273 273 274 280 283 286 289 292 295 297 300 301 303 302 301 301 301 300 299 296 295 293 291 288 286 283
255 259 262 264 265 265 265 266 263 281 280 262 266 265 265 267 268 268 270 273 279 284 285 289 291 292 296 299 302 303 301 300 302 302 300 299 296 296 295 293 290 288 286
261 263 265 267 267 267 268 268 269 270 283 268 263 264 263 267 267 266 271 274 278 283 284 288 293 293 294 298 300 300 300 301 301 300 299 297 297 297 296 293 292 291 290
263 264 266 267 269 271 271 270 270 274 292 276 262 264 264 265 267 268 272 275 276 279 285 287 290 292 296 298 300 301 299 300 299 298 296 295 297 298 297 295 295 294 293
267 265 267 268 273 273 274 272 272 278 288 270 264 266 265 265 266 271 277 276 275 281 285 288 289 292 296 297 299 300 300 301 300 298 296 295 296 296 295 295 296 295 296
266 265 268 272 275 277 278 273 273 279 281 269 268 269 265 263 263 270 276 279 278 283 285 288 291 292 299 299 300 300 301 300 299 297 296 295 295 296 297 298 297 297 300
268 269 272 276 280 279 277 275 277 283 277 273 269 266 264 267 266 269 282 276 280 286 285 290 291 295 297 298 297 299 300 301 300 299 298 297 296 296 298 298 300 302 305
271 276 277 277 278 281 278 277 275 279 276 271 265 264 268 268 271 274 282 286 284 282 284 289 293 295 297 297 297 299 301 301 300 300 300 299 299 299 299 300 304 307 309
277 277 279 277 279 280 279 277 275 276 274 268 263 268 267 272 277 278 283 286 285 282 286 291 293 295 296 295 297 299 301 301 302 302 302 303 302 300 300 303 307 310 313
279 276 274 276 276 278 276 276 275 275 272 271 266 268 274 274 282 283 284 285 285 286 290 293 294 295 295 294 295 295 298 300 303 302 303 305 305 304 303 306 311 313 316
273 273 273 274 274 272 277 275 272 276 275 270 271 271 279 281 279 282 283 285 287 289 292 294 294 295 295 294 292 293 295 299 302 302 303 304 304 306 308 311 315 317 321
270 272 271 273 269 273 273 269 273 279 279 277 276 276 280 279 280 280 285 287 290 293 294 294 294 294 293 292 292 293 296 300 303 304 306 306 306 307 311 314 317 321 325
271 269 270 270 270 269 270 272 278 281 282 280 279 279 281 282 283 285 287 291 293 293 294 294 294 292 291 291 292 295 297 300 304 306 307 309 309 310 313 316 319 325 329
268 270 268 268 266 271 273 274 277 283 281 280 282 283 284 284 287 290 291 293 294 294 293 293 292 290 290 289 291 294 297 300 303 304 305 308 311 312 314 318 321 328 332
273 269 266 266 272 276 276 274 276 275 274 279 283 285 286 288 290 292 294 294 295 294 293 291 289 288 288 288 291 294 297 300 302 302 304 307 310 314 316 318 321 330 332
268 267 266 274 278 276 275 275 273 274 277 279 281 284 287 290 292 293 294 295 294 294 294 292 290 289 288 290 292 295 297 299 301 302 303 307 311 314 318 321 323 327 333
268 269 268 270 274 276 277 275 273 275 277 280 281 283 284 288 290 292 295 294 294 296 296 293 291 290 291 292 294 295 296 298 301 304 306 308 313 315 320 325 329 331 337
265 264 267 270 274 275 276 277 277 276 277 279 281 280 282 283 288 292 293 294 296 297 296 292 291 290 291 293 293 293 293 296 300 304 308 311 313 316 320 325 331 335 339
261 266 269 273 276 276 277 280 278 277 278 277 279 281 279 283 288 290 291 292 294 295 294 291 290 291 293 293 290 289 291 293 297 301 305 308 310 313 316 321 329 335 339
265 268 271 275 276 274 276 279 278 278 277 277 278 279 280 283 286 289 290 290 292 291 289 287 286 288 289 286 284 285 288 293 297 300 302 304 307 309 310 314 320 328 337
269 270 272 274 276 275 276 277 277 277 278 278 280 282 281 282 285 286 288 289 291 289 288 285 284 285 282 278 277 280 286 293 297 298 300 301 300 303 305 306 310 317 324
269 272 274 274 275 275 274 275 277 280 281 281 281 283 283 282 282 282 284 286 288 289 288 285 283 280 275 273 274 279 285 291 296 299 300 301 300 298 298 299 302 306 314
274 276 277 276 275 275 274 276 278 279 280 281 284 286 286 284 282 280 281 282 283 285 286 284 282 277 271 268 272 278 285 290 293 296 299 301 301 299 296 294 297 296 301